SWA923 KMCO-MMUN

Flight info

Callsign SWA923
Flight time 1h 32m
Altitude 37000
Route FSHUN4 PLUMR DCT SHEEK Q118 FEMID/N0448F380 DCT KARTR DCT LULLS Y196 CANOA UB879 NOSAT NOSAT1B
Aircraft B737/M-SDE2E3FGHIRWXY/LB1

Departure

Time 2026-05-06 15:58
Airport Orlando International Airport (KMCO)

Arrival

Time 2026-05-06 17:30
Airport Cancún International Airport (MMUN)
Time Latitude Longitude Altitude Speed Heading
2026-05-06 15:35 28.42680 -81.31413 93 ft 0 kts 332°
2026-05-06 15:49 28.42668 -81.31406 94 ft 3 kts 332°
2026-05-06 15:50 28.42644 -81.31393 92 ft 4 kts 342°
2026-05-06 15:50 28.42617 -81.31386 92 ft 4 kts 352°
2026-05-06 15:50 28.42590 -81.31383 93 ft 4 kts 358°
2026-05-06 15:50 28.42569 -81.31382 94 ft 4 kts 349°
2026-05-06 15:51 28.42548 -81.31371 93 ft 4 kts 298°
2026-05-06 15:51 28.42544 -81.31349 93 ft 1 kts 258°
2026-05-06 15:51 28.42545 -81.31344 92 ft 0 kts 258°
2026-05-06 15:53 28.42545 -81.31345 94 ft 0 kts 258°
2026-05-06 15:53 28.42537 -81.31388 93 ft 12 kts 258°
2026-05-06 15:53 28.42509 -81.31526 93 ft 21 kts 258°
2026-05-06 15:53 28.42599 -81.31626 94 ft 21 kts 348°
2026-05-06 15:54 28.42709 -81.31701 98 ft 20 kts 274°
2026-05-06 15:54 28.42708 -81.31857 101 ft 19 kts 270°
2026-05-06 15:54 28.42745 -81.31990 101 ft 19 kts 344°
2026-05-06 15:54 28.42880 -81.31993 98 ft 21 kts 359°
2026-05-06 15:55 28.43031 -81.31995 97 ft 25 kts 359°
2026-05-06 15:55 28.43241 -81.31997 97 ft 35 kts
2026-05-06 15:55 28.43513 -81.32001 98 ft 42 kts 359°
2026-05-06 15:55 28.43797 -81.32004 97 ft 40 kts 359°
2026-05-06 15:56 28.44063 -81.32008 98 ft 36 kts 359°
2026-05-06 15:56 28.44306 -81.32009 100 ft 33 kts 359°
2026-05-06 15:56 28.44528 -81.32012 99 ft 31 kts 359°
2026-05-06 15:56 28.44696 -81.32027 99 ft 19 kts 326°
2026-05-06 15:57 28.44713 -81.32169 97 ft 18 kts 269°
2026-05-06 15:57 28.44625 -81.32230 98 ft 18 kts 179°
2026-05-06 15:57 28.44287 -81.32226 100 ft 95 kts 179°
2026-05-06 15:57 28.43322 -81.32189 216 ft 172 kts 176°
2026-05-06 15:58 28.42052 -81.32109 1059 ft 199 kts 175°
2026-05-06 15:58 28.40566 -81.32028 1845 ft 227 kts 179°
2026-05-06 15:58 28.38960 -81.32147 2765 ft 234 kts 185°
2026-05-06 15:58 28.37284 -81.32277 3374 ft 251 kts 182°
2026-05-06 15:59 28.35514 -81.32385 4270 ft 255 kts 181°
2026-05-06 15:59 28.33694 -81.32443 5083 ft 273 kts 181°
2026-05-06 15:59 28.31675 -81.32546 5545 ft 303 kts 180°
2026-05-06 15:59 28.29585 -81.32477 6783 ft 296 kts 176°
2026-05-06 16:00 28.27550 -81.32372 8046 ft 294 kts 179°
2026-05-06 16:00 28.25534 -81.32813 8969 ft 299 kts 204°
2026-05-06 16:00 28.23656 -81.33785 9973 ft 303 kts 207°
2026-05-06 16:00 28.21733 -81.34846 10684 ft 316 kts 207°
2026-05-06 16:01 28.19670 -81.35982 10932 ft 345 kts 207°
2026-05-06 16:01 28.17449 -81.37181 11494 ft 358 kts 207°
2026-05-06 16:01 28.15173 -81.38387 12266 ft 364 kts 207°
2026-05-06 16:01 28.12851 -81.39600 13086 ft 369 kts 207°
2026-05-06 16:02 28.10491 -81.40823 13862 ft 375 kts 207°
2026-05-06 16:02 28.08104 -81.42055 14524 ft 381 kts 207°
2026-05-06 16:02 28.05679 -81.43304 15286 ft 383 kts 207°
2026-05-06 16:02 28.03280 -81.44538 16047 ft 385 kts 207°
2026-05-06 16:03 28.00831 -81.45796 16795 ft 388 kts 208°
2026-05-06 16:03 27.98362 -81.47067 17525 ft 391 kts 208°
2026-05-06 16:03 27.95876 -81.48345 18239 ft 395 kts 208°
2026-05-06 16:03 27.93363 -81.49636 18890 ft 398 kts 208°
2026-05-06 16:04 27.90919 -81.51110 19481 ft 397 kts 218°
2026-05-06 16:04 27.88687 -81.52953 20097 ft 398 kts 222°
2026-05-06 16:04 27.86492 -81.54868 20713 ft 400 kts 223°
2026-05-06 16:04 27.84279 -81.56811 21342 ft 403 kts 223°
2026-05-06 16:05 27.82050 -81.58754 21955 ft 406 kts 223°
2026-05-06 16:05 27.79795 -81.60700 22517 ft 410 kts 222°
2026-05-06 16:05 27.77538 -81.62634 23054 ft 414 kts 222°
2026-05-06 16:05 27.75226 -81.64607 23607 ft 418 kts 222°
2026-05-06 16:06 27.72895 -81.66593 24107 ft 420 kts 222°
2026-05-06 16:06 27.70559 -81.68582 24640 ft 421 kts 222°
2026-05-06 16:06 27.68179 -81.70524 25142 ft 425 kts 219°
2026-05-06 16:06 27.65694 -81.72364 25631 ft 428 kts 218°
2026-05-06 16:07 27.63184 -81.74184 26102 ft 430 kts 218°
2026-05-06 16:07 27.60534 -81.75830 26537 ft 442 kts 206°
2026-05-06 16:07 27.57510 -81.76682 26989 ft 455 kts 191°
2026-05-06 16:07 27.54344 -81.76617 27423 ft 468 kts 175°
2026-05-06 16:08 27.51128 -81.75946 27863 ft 472 kts 172°
2026-05-06 16:08 27.47898 -81.75161 28262 ft 476 kts 172°
2026-05-06 16:08 27.44650 -81.74350 28641 ft 480 kts 172°
2026-05-06 16:08 27.41373 -81.73551 29023 ft 483 kts 172°
2026-05-06 16:09 27.38071 -81.72774 29419 ft 485 kts 173°
2026-05-06 16:09 27.34751 -81.72016 29805 ft 488 kts 173°
2026-05-06 16:09 27.31412 -81.71268 30173 ft 490 kts 173°
2026-05-06 16:09 27.28055 -81.70523 30485 ft 493 kts 173°
2026-05-06 16:10 27.24683 -81.69776 30793 ft 495 kts 173°
2026-05-06 16:10 27.21291 -81.69024 31099 ft 497 kts 173°
2026-05-06 16:10 27.17931 -81.68276 31404 ft 499 kts 173°
2026-05-06 16:10 27.14516 -81.67517 31714 ft 501 kts 173°
2026-05-06 16:11 27.11086 -81.66753 32022 ft 502 kts 173°
2026-05-06 16:11 27.07652 -81.65989 32427 ft 501 kts 173°
2026-05-06 16:11 27.04238 -81.65232 32870 ft 499 kts 174°
2026-05-06 16:11 27.00819 -81.64493 33237 ft 500 kts 174°
2026-05-06 16:12 26.97396 -81.63769 33603 ft 500 kts 174°
2026-05-06 16:12 26.93977 -81.63052 34038 ft 498 kts 174°
2026-05-06 16:12 26.90574 -81.62339 34414 ft 496 kts 174°
2026-05-06 16:12 26.87234 -81.61637 34791 ft 494 kts 174°
2026-05-06 16:13 26.83850 -81.60925 35114 ft 493 kts 174°
2026-05-06 16:13 26.80475 -81.60214 35404 ft 493 kts 174°
2026-05-06 16:13 26.77108 -81.59505 35716 ft 492 kts 174°
2026-05-06 16:13 26.73750 -81.58797 36041 ft 490 kts 174°
2026-05-06 16:14 26.70394 -81.58089 36360 ft 489 kts 174°
2026-05-06 16:14 26.68171 -81.57620 36555 ft 489 kts 174°
2026-05-06 16:14 26.64825 -81.56916 36838 ft 488 kts 174°
2026-05-06 16:14 26.61488 -81.56214 37096 ft 487 kts 174°
2026-05-06 16:15 26.57080 -81.55287 37528 ft 485 kts 174°
2026-05-06 16:15 26.53771 -81.54591 37836 ft 483 kts 174°
2026-05-06 16:15 26.51579 -81.54131 38011 ft 483 kts 174°
2026-05-06 16:15 26.48266 -81.53437 38085 ft 486 kts 174°
2026-05-06 16:16 26.41592 -81.52039 38086 ft 487 kts 174°
2026-05-06 16:16 26.34956 -81.50647 38078 ft 482 kts 174°
2026-05-06 16:17 26.28379 -81.49270 38077 ft 479 kts 174°
2026-05-06 16:17 26.21871 -81.47910 38087 ft 477 kts 174°
2026-05-06 16:18 26.15350 -81.46549 38089 ft 476 kts 174°
2026-05-06 16:18 26.08817 -81.45679 38079 ft 467 kts 188°
2026-05-06 16:19 26.02366 -81.46272 38089 ft 465 kts 191°
2026-05-06 16:19 25.95951 -81.46958 38112 ft 467 kts 190°
2026-05-06 16:20 25.89446 -81.47600 38091 ft 470 kts 190°
2026-05-06 16:20 25.82914 -81.48210 38093 ft 472 kts 190°
2026-05-06 16:21 25.76346 -81.48818 38092 ft 474 kts 190°
2026-05-06 16:21 25.69755 -81.49429 38078 ft 475 kts 189°
2026-05-06 16:22 25.63208 -81.50037 38091 ft 474 kts 189°
2026-05-06 16:22 25.56626 -81.50648 38083 ft 473 kts 189°
2026-05-06 16:23 25.50085 -81.51396 38077 ft 468 kts 197°
2026-05-06 16:23 25.44038 -81.53617 38104 ft 457 kts 207°
2026-05-06 16:24 25.38162 -81.56311 38080 ft 456 kts 207°
2026-05-06 16:24 25.32283 -81.58982 38088 ft 456 kts 207°
2026-05-06 16:25 25.26397 -81.61611 38092 ft 456 kts 207°
2026-05-06 16:25 25.20507 -81.64222 38093 ft 456 kts 207°
2026-05-06 16:26 25.14648 -81.66814 38104 ft 456 kts 207°
2026-05-06 16:26 25.08754 -81.69420 38080 ft 456 kts 206°
2026-05-06 16:27 25.02856 -81.72026 38086 ft 456 kts 206°
2026-05-06 16:27 24.96955 -81.74631 38094 ft 456 kts 206°
2026-05-06 16:28 24.91049 -81.77236 38090 ft 457 kts 206°
2026-05-06 16:28 24.85183 -81.79821 38092 ft 457 kts 206°
2026-05-06 16:29 24.79264 -81.82426 38088 ft 457 kts 206°
2026-05-06 16:29 24.73345 -81.85028 38089 ft 457 kts 206°
2026-05-06 16:30 24.68429 -81.87188 38096 ft 457 kts 206°
2026-05-06 16:30 24.61552 -81.90206 38095 ft 458 kts 206°
2026-05-06 16:31 24.55632 -81.92801 38107 ft 458 kts 206°
2026-05-06 16:31 24.49909 -81.95760 38091 ft 448 kts 222°
2026-05-06 16:32 24.47652 -81.98055 38109 ft 440 kts 234°
2026-05-06 16:32 24.45922 -82.00776 38098 ft 432 kts 248°
2026-05-06 16:32 24.43358 -82.06711 38099 ft 431 kts 249°
2026-05-06 16:33 24.40811 -82.12685 38086 ft 431 kts 249°
2026-05-06 16:34 24.36945 -82.21576 38095 ft 432 kts 248°
2026-05-06 16:34 24.34336 -82.27517 38090 ft 433 kts 248°
2026-05-06 16:35 24.31715 -82.33474 38089 ft 433 kts 248°
2026-05-06 16:35 24.29094 -82.39424 38090 ft 433 kts 248°
2026-05-06 16:36 24.26475 -82.45364 38083 ft 433 kts 248°
2026-05-06 16:36 24.23856 -82.51298 38086 ft 432 kts 248°
2026-05-06 16:37 24.21255 -82.57182 38084 ft 431 kts 248°
2026-05-06 16:37 24.18635 -82.63101 38081 ft 431 kts 248°
2026-05-06 16:38 24.16017 -82.69009 38088 ft 431 kts 248°
2026-05-06 16:38 24.13398 -82.74912 38086 ft 431 kts 248°
2026-05-06 16:39 24.10774 -82.80820 38088 ft 431 kts 248°
2026-05-06 16:39 24.08162 -82.86691 38081 ft 431 kts 248°
2026-05-06 16:40 24.05532 -82.92598 38086 ft 432 kts 248°
2026-05-06 16:40 24.02896 -82.98512 38084 ft 432 kts 248°
2026-05-06 16:41 24.00262 -83.04371 38080 ft 433 kts 245°
2026-05-06 16:41 23.96839 -83.09832 38082 ft 437 kts 237°
2026-05-06 16:42 23.93164 -83.15136 38082 ft 437 kts 237°
2026-05-06 16:42 23.89508 -83.20444 38072 ft 437 kts 237°
2026-05-06 16:43 23.85872 -83.25771 38084 ft 437 kts 237°
2026-05-06 16:43 23.82268 -83.31062 38077 ft 437 kts 237°
2026-05-06 16:44 23.78638 -83.36386 38075 ft 437 kts 237°
2026-05-06 16:44 23.75000 -83.41715 38076 ft 437 kts 237°
2026-05-06 16:45 23.71356 -83.47046 38076 ft 438 kts 237°
2026-05-06 16:45 23.67716 -83.52366 38074 ft 438 kts 237°
2026-05-06 16:46 23.64068 -83.57693 38076 ft 437 kts 237°
2026-05-06 16:46 23.60447 -83.62970 38054 ft 437 kts 236°
2026-05-06 16:47 23.56800 -83.68273 38077 ft 437 kts 236°
2026-05-06 16:47 23.53145 -83.73586 38073 ft 437 kts 236°
2026-05-06 16:48 23.49495 -83.78887 38063 ft 437 kts 236°
2026-05-06 16:48 23.45839 -83.84192 38061 ft 438 kts 236°
2026-05-06 16:49 23.42181 -83.89494 38068 ft 438 kts 236°
2026-05-06 16:49 23.38543 -83.94762 38068 ft 438 kts 236°
2026-05-06 16:50 23.34872 -84.00072 38056 ft 438 kts 236°
2026-05-06 16:50 23.31210 -84.05364 38049 ft 437 kts 236°
2026-05-06 16:51 23.27569 -84.10619 38066 ft 437 kts 236°
2026-05-06 16:51 23.23900 -84.15910 38060 ft 438 kts 236°
2026-05-06 16:52 23.20231 -84.21196 38061 ft 438 kts 236°
2026-05-06 16:52 23.16553 -84.26489 38061 ft 438 kts 236°
2026-05-06 16:53 23.12901 -84.31739 38059 ft 438 kts 236°
2026-05-06 16:53 23.09223 -84.37022 38057 ft 438 kts 236°
2026-05-06 16:54 23.05545 -84.42299 38058 ft 437 kts 236°
2026-05-06 16:54 23.01892 -84.47535 38055 ft 437 kts 236°
2026-05-06 16:55 22.98212 -84.52806 38048 ft 437 kts 236°
2026-05-06 16:55 22.94537 -84.58060 38054 ft 437 kts 236°
2026-05-06 16:56 22.90851 -84.63322 38056 ft 438 kts 236°
2026-05-06 16:56 22.87160 -84.68587 38054 ft 438 kts 236°
2026-05-06 16:57 22.83492 -84.73816 38045 ft 438 kts 236°
2026-05-06 16:57 22.79802 -84.79071 38047 ft 438 kts 236°
2026-05-06 16:58 22.76105 -84.84332 38053 ft 438 kts 236°
2026-05-06 16:58 22.72411 -84.89583 38048 ft 438 kts 236°
2026-05-06 16:59 22.68718 -84.94827 38034 ft 438 kts 235°
2026-05-06 16:59 22.65043 -85.00042 38050 ft 438 kts 235°
2026-05-06 17:00 22.61341 -85.05290 38047 ft 438 kts 235°
2026-05-06 17:00 22.57653 -85.10550 38053 ft 439 kts 236°
2026-05-06 17:01 22.53979 -85.15832 38053 ft 439 kts 236°
2026-05-06 17:01 22.50317 -85.21090 38046 ft 440 kts 236°
2026-05-06 17:02 22.46630 -85.26374 38046 ft 440 kts 235°
2026-05-06 17:02 22.42944 -85.31650 38044 ft 440 kts 235°
2026-05-06 17:03 22.39254 -85.36925 38044 ft 440 kts 235°
2026-05-06 17:03 22.36184 -85.41310 38039 ft 440 kts 235°
2026-05-06 17:04 22.32490 -85.46582 38047 ft 440 kts 235°
2026-05-06 17:04 22.30629 -85.49238 37571 ft 447 kts 235°
2026-05-06 17:04 22.28144 -85.52782 36798 ft 445 kts 235°
2026-05-06 17:04 22.26880 -85.54582 36369 ft 444 kts 234°
2026-05-06 17:05 22.25034 -85.57210 35722 ft 444 kts 234°
2026-05-06 17:05 22.23167 -85.59870 34941 ft 447 kts 234°
2026-05-06 17:05 22.21286 -85.62560 34272 ft 447 kts 234°
2026-05-06 17:05 22.19413 -85.65242 33626 ft 446 kts 234°
2026-05-06 17:06 22.17557 -85.67900 33090 ft 441 kts 234°
2026-05-06 17:06 22.15721 -85.70528 32549 ft 437 kts 234°
2026-05-06 17:06 22.13897 -85.73137 32027 ft 433 kts 234°
2026-05-06 17:06 22.12091 -85.75718 31518 ft 429 kts 234°
2026-05-06 17:07 22.10325 -85.78242 31031 ft 425 kts 234°
2026-05-06 17:07 22.08550 -85.80776 30537 ft 422 kts 233°
2026-05-06 17:07 22.06787 -85.83293 30008 ft 419 kts 233°
2026-05-06 17:07 22.05038 -85.85790 29441 ft 416 kts 234°
2026-05-06 17:08 22.03300 -85.88267 28888 ft 412 kts 233°
2026-05-06 17:08 22.01576 -85.90725 28364 ft 409 kts 234°
2026-05-06 17:08 21.99868 -85.93160 27839 ft 405 kts 233°
2026-05-06 17:08 21.98168 -85.95579 27325 ft 403 kts 233°
2026-05-06 17:09 21.96500 -85.97956 26822 ft 400 kts 234°
2026-05-06 17:09 21.94917 -86.00422 26147 ft 402 kts 237°
2026-05-06 17:09 21.93390 -86.02976 25381 ft 408 kts 238°
2026-05-06 17:09 21.91876 -86.05576 24798 ft 409 kts 238°
2026-05-06 17:10 21.90368 -86.08175 24217 ft 409 kts 238°
2026-05-06 17:10 21.88855 -86.10772 23677 ft 409 kts 238°
2026-05-06 17:10 21.87339 -86.13357 23060 ft 408 kts 238°
2026-05-06 17:10 21.85822 -86.15929 22511 ft 405 kts 238°
2026-05-06 17:11 21.84318 -86.18471 21986 ft 401 kts 238°
2026-05-06 17:11 21.82840 -86.20963 21469 ft 398 kts 238°
2026-05-06 17:11 21.81353 -86.23466 20946 ft 395 kts 238°
2026-05-06 17:11 21.79876 -86.25951 20415 ft 393 kts 238°
2026-05-06 17:12 21.78400 -86.28431 19894 ft 391 kts 238°
2026-05-06 17:12 21.76937 -86.30890 19376 ft 389 kts 238°
2026-05-06 17:12 21.75476 -86.33344 18853 ft 388 kts 238°
2026-05-06 17:12 21.74023 -86.35783 18329 ft 387 kts 238°
2026-05-06 17:13 21.72572 -86.38218 17740 ft 385 kts 238°
2026-05-06 17:13 21.71133 -86.40632 17216 ft 382 kts 238°
2026-05-06 17:13 21.69702 -86.43032 16694 ft 379 kts 238°
2026-05-06 17:13 21.68284 -86.45409 16174 ft 377 kts 237°
2026-05-06 17:14 21.66891 -86.47744 15662 ft 374 kts 237°
2026-05-06 17:14 21.65488 -86.50093 15144 ft 372 kts 237°
2026-05-06 17:14 21.64095 -86.52425 14629 ft 370 kts 237°
2026-05-06 17:14 21.62708 -86.54747 14111 ft 368 kts 237°
2026-05-06 17:15 21.61327 -86.57057 13565 ft 367 kts 236°
2026-05-06 17:15 21.59950 -86.59360 13030 ft 364 kts 237°
2026-05-06 17:15 21.58588 -86.61636 12507 ft 361 kts 236°
2026-05-06 17:15 21.57234 -86.63898 12002 ft 358 kts 236°
2026-05-06 17:16 21.55893 -86.66137 11471 ft 356 kts 236°
2026-05-06 17:16 21.54559 -86.68364 10963 ft 353 kts 236°
2026-05-06 17:16 21.53228 -86.70584 10458 ft 351 kts 236°
2026-05-06 17:16 21.51929 -86.72753 10262 ft 339 kts 236°
2026-05-06 17:17 21.50674 -86.74847 10098 ft 327 kts 235°
2026-05-06 17:17 21.49479 -86.76839 9941 ft 315 kts 235°
2026-05-06 17:17 21.48323 -86.78768 9824 ft 302 kts 235°
2026-05-06 17:17 21.47154 -86.80713 9110 ft 312 kts 234°
2026-05-06 17:18 21.45974 -86.82675 8617 ft 313 kts 234°
2026-05-06 17:18 21.44803 -86.84624 8191 ft 305 kts 235°
2026-05-06 17:18 21.43670 -86.86509 7811 ft 295 kts 235°
2026-05-06 17:18 21.42578 -86.88327 7441 ft 285 kts 233°
2026-05-06 17:19 21.41519 -86.90089 7087 ft 277 kts 234°
2026-05-06 17:19 21.40503 -86.91778 6742 ft 269 kts 234°
2026-05-06 17:19 21.39500 -86.93444 6407 ft 261 kts 233°
2026-05-06 17:19 21.38530 -86.95056 6056 ft 254 kts 232°
2026-05-06 17:20 21.37582 -86.96630 5728 ft 249 kts 232°
2026-05-06 17:20 21.36640 -86.98193 5434 ft 250 kts 233°
2026-05-06 17:20 21.35676 -86.99789 5125 ft 258 kts 233°
2026-05-06 17:20 21.34689 -87.01423 4783 ft 263 kts 232°
2026-05-06 17:21 21.33711 -87.03049 4427 ft 255 kts 232°
2026-05-06 17:21 21.32765 -87.04622 4087 ft 247 kts 232°
2026-05-06 17:21 21.31855 -87.06130 3774 ft 241 kts 231°
2026-05-06 17:21 21.30946 -87.07635 3470 ft 241 kts 232°
2026-05-06 17:22 21.30019 -87.09165 3177 ft 251 kts 231°
2026-05-06 17:22 21.28838 -87.10536 2923 ft 250 kts 210°
2026-05-06 17:22 21.28349 -87.10882 2873 ft 251 kts 208°
2026-05-06 17:22 21.26882 -87.11889 2638 ft 253 kts 208°
2026-05-06 17:23 21.25413 -87.12909 2462 ft 251 kts 208°
2026-05-06 17:23 21.23958 -87.13919 2249 ft 246 kts 205°
2026-05-06 17:23 21.22367 -87.14409 2086 ft 237 kts 176°
2026-05-06 17:23 21.20809 -87.14037 2029 ft 232 kts 153°
2026-05-06 17:24 21.19498 -87.13020 2008 ft 235 kts 131°
2026-05-06 17:24 21.18531 -87.11593 2000 ft 236 kts 125°
2026-05-06 17:24 21.17631 -87.10129 1986 ft 234 kts 124°
2026-05-06 17:24 21.16733 -87.08670 1998 ft 233 kts 124°
2026-05-06 17:25 21.15845 -87.07231 1996 ft 228 kts 124°
2026-05-06 17:25 21.14988 -87.05847 1977 ft 216 kts 124°
2026-05-06 17:25 21.14191 -87.04565 1995 ft 197 kts 124°
2026-05-06 17:25 21.13466 -87.03399 1973 ft 178 kts 124°
2026-05-06 17:26 21.12805 -87.02340 1797 ft 168 kts 124°
2026-05-06 17:26 21.12187 -87.01347 1675 ft 153 kts 124°
2026-05-06 17:26 21.11618 -87.00436 1616 ft 142 kts 124°
2026-05-06 17:26 21.11087 -86.99591 1581 ft 132 kts 125°
2026-05-06 17:27 21.10589 -86.98806 1507 ft 126 kts 125°
2026-05-06 17:27 21.10096 -86.98055 1477 ft 121 kts 127°
2026-05-06 17:27 21.09601 -86.97296 1439 ft 122 kts 125°
2026-05-06 17:27 21.09122 -86.96532 1401 ft 130 kts 124°
2026-05-06 17:28 21.08627 -86.95732 1353 ft 128 kts 125°
2026-05-06 17:28 21.08153 -86.94965 1319 ft 121 kts 125°
2026-05-06 17:28 21.07681 -86.94202 1217 ft 124 kts 124°
2026-05-06 17:28 21.07194 -86.93411 1054 ft 127 kts 124°
2026-05-06 17:29 21.06713 -86.92630 882 ft 126 kts 125°
2026-05-06 17:29 21.06228 -86.91839 657 ft 125 kts 129°
2026-05-06 17:29 21.05751 -86.91042 514 ft 132 kts 123°
2026-05-06 17:29 21.05240 -86.90177 361 ft 134 kts 130°
2026-05-06 17:30 21.04716 -86.89384 148 ft 131 kts 128°
2026-05-06 17:30 21.04204 -86.88571 34 ft 124 kts 125°
2026-05-06 17:30 21.03798 -86.87924 21 ft 77 kts 124°
2026-05-06 17:30 21.03618 -86.87595 22 ft 43 kts 107°
2026-05-06 17:31 21.03597 -86.87431 21 ft 11 kts 94°
2026-05-06 17:31 21.03632 -86.87418 21 ft 11 kts 340°
2026-05-06 17:31 21.03703 -86.87465 20 ft 12 kts 311°
2026-05-06 17:31 21.03757 -86.87548 20 ft 15 kts 304°
2026-05-06 17:32 21.03811 -86.87637 21 ft 14 kts 302°
2026-05-06 17:32 21.03871 -86.87736 21 ft 17 kts 303°
2026-05-06 17:32 21.03935 -86.87840 21 ft 16 kts 306°
2026-05-06 17:32 21.04000 -86.87937 21 ft 16 kts 304°
2026-05-06 17:33 21.04058 -86.88031 21 ft 15 kts 303°
2026-05-06 17:33 21.04115 -86.88121 21 ft 14 kts 304°
2026-05-06 17:33 21.04171 -86.88210 22 ft 16 kts 303°
2026-05-06 17:33 21.04245 -86.88327 23 ft 22 kts 304°
2026-05-06 17:34 21.04334 -86.88470 23 ft 23 kts 304°
2026-05-06 17:34 21.04422 -86.88601 25 ft 18 kts 325°
2026-05-06 17:34 21.04531 -86.88549 23 ft 18 kts 33°
2026-05-06 17:34 21.04631 -86.88478 23 ft 17 kts 33°
2026-05-06 17:35 21.04727 -86.88411 23 ft 16 kts 33°
2026-05-06 17:35 21.04739 -86.88403 25 ft 0 kts 33°
2026-05-06 17:35 21.04735 -86.88394 24 ft 2 kts 121°
2026-05-06 17:36 21.04712 -86.88359 23 ft 4 kts 124°
2026-05-06 17:36 21.04701 -86.88341 27 ft 0 kts 125°